Showing default

LT-1 01B, 51822

Orbit data source: Space-Track

LT-1 01B, 51822 is a payload satellite owned by SAST (CN) in SSO that was launched on Sat, 26 Feb 2022 UTC via a CHANG ZHENG 4C launch vehicle from the Jiuquan Satellite Launch Center, China (JSC). Payload-class satellites include a variety of spacecraft equipped with specific instruments for various scientific and technological missions. These include communications satellites like Starlink; space stations such as the ISS; scientific satellites like the Hubble; Earth observation satellites from companies like Planet Labs, Umbra, and HawkEye 360; GPS; miniature CubeSats for education and research; and military/defense satellites.

Loading next visibility...
Identifier
51822, 2022-018A
Orbit
SSO
Country
Flag of CNCN / PRC
Related business
Manufacturer
SAST
Mission
Operational Civil Radar Imaging
Bus & Motor
LSAR, AOCS 20N
Mass
3,200 kg wet, ~2,500 kg dry
Launch date (UTC)
2022-02-26 (4 years ago)
Launch vehicle
CHANG ZHENG 4C
Launch site
Jiuquan Satellite Launch Center, China (JSC)
Object type
Payload
Rocket body
Debris
Shape & HBR
Box + 4 Pan, 5.0 m
Radar Cross Section
14.608 m², Large (>1 m²)

Expand to show TLE details & history
Last TLE update: 22 hours ago

TLE from 22 hours ago
0 LT-1 01B
1 51822U 22018A   26172.51723980  .00000425  00000-0  51681-4 0  9990
2 51822  97.8109 179.8725 0001609  92.4197 267.7204 14.88422507234357
Epoch: 2026-06-21T12:24Z
TLE epoch observation values (Epoch: 2026-06-21T12:24:49.518Z)
Latitude
-0.00004°
Longitude
83.94981°
Altitude
605.944 km
Speed
7.556 km/s
True Right ascension
11h 59m 29s
True Declination
0° 00' 00"
Sunlit
Object was in daylight at epoch
Visualization orbit readout
Latitude
Unknown
Longitude
Unknown
Altitude
Unknown
Speed
Unknown
Apparent Right ascension
Unknown
Apparent Declination
Unknown
Sunlit
N/A
Visualization observer readout
Local Sidereal Time
21:32:26
Azimuth
Unknown
Elevation
Unknown
Doppler factor
Unknown
Orbital elements
Apogee altitude
601.012 km
Perigee altitude
598.767 km
Semi-major axis
6,978.026 km
Eccentricity
0.00016
Inclination
97.8109°
RAAN
179.8725°
Arg. of periapsis
92.4197°
True anomaly
267.70198°
Mean anomaly
267.7204°
Eccentric anomaly
267.71119°
Mean motion
3.72344 °/min
Orbital period
96.68 mins
BSTAR
0.000051681
Loading maneuver chart data...
Computing Atmospheric mass density...
Loading historical data...
Loading historical data...
Loading historical data...
Loading historical data...
Loading historical data...
Loading historical data...
Loading historical data...
Other satellites on launch #18 in the year 2022 (2022-02-26 UTC)

Documentation

Showing up to 5 results
|